Time,TemperatureF,DewpointF,PressureIn,WindDirection,WindDirectionDegrees,WindSpeedMPH,WindSpeedGustMPH,Humidity,HourlyPrecipIn,Conditions,Clouds,dailyrainin,SoftwareType,DateUTC
2013-03-25 00:00:00,35.4,22.9,29.74,North,0,8.6,8.6,60,0.00,,---,0.00,VWS V14.00,2013-03-25 05:00:00,
2013-03-25 00:06:00,35.4,22.5,29.76,WSW,248,8.8,8.8,59,0.00,,---,0.00,VWS V14.00,2013-03-25 05:06:00,
2013-03-25 00:11:00,35.6,22.3,29.76,NNW,338,10.0,10.0,58,0.00,,---,0.00,VWS V14.00,2013-03-25 05:11:00,
2013-03-25 00:16:00,35.6,23.1,29.76,NW,315,18.3,18.3,60,0.00,,---,0.00,VWS V14.00,2013-03-25 05:16:00,
2013-03-25 00:21:00,35.6,23.5,29.76,North,0,4.1,6.5,61,0.00,,---,0.00,VWS V14.00,2013-03-25 05:21:00,
2013-03-25 00:26:00,35.4,23.7,29.76,WNW,292,11.1,11.1,62,0.00,,---,0.00,VWS V14.00,2013-03-25 05:26:00,
2013-03-25 00:31:00,35.2,24.7,29.76,WNW,292,11.1,11.1,65,0.00,,---,0.00,VWS V14.00,2013-03-25 05:31:00,
2013-03-25 00:37:00,35.1,24.5,29.76,West,270,7.7,7.7,65,0.00,,---,0.00,VWS V14.00,2013-03-25 05:37:00,
2013-03-25 00:42:00,35.1,24.9,29.76,WSW,248,11.6,11.6,66,0.00,,---,0.00,VWS V14.00,2013-03-25 05:42:00,
2013-03-25 00:47:00,34.9,25.0,29.76,NNW,338,4.6,7.8,67,0.00,,---,0.00,VWS V14.00,2013-03-25 05:47:00,
2013-03-25 00:53:00,34.9,25.0,29.76,WNW,292,6.3,8.5,67,0.00,,---,0.00,VWS V14.00,2013-03-25 05:53:00,
2013-03-25 00:58:00,34.9,25.0,29.76,NE,45,6.0,6.0,67,0.00,,---,0.00,VWS V14.00,2013-03-25 05:58:00,
2013-03-25 01:04:00,34.9,25.4,29.76,NW,315,4.6,6.0,68,0.00,,---,0.00,VWS V14.00,2013-03-25 06:04:00,
2013-03-25 01:10:00,34.7,25.2,29.76,NNW,338,10.5,10.5,68,0.00,,---,0.00,VWS V14.00,2013-03-25 06:10:00,
2013-03-25 01:15:00,34.7,24.9,29.76,NNW,338,5.2,8.1,67,0.00,,---,0.00,VWS V14.00,2013-03-25 06:15:00,
2013-03-25 01:20:00,34.7,24.9,29.76,NW,315,7.2,7.2,67,0.00,,---,0.00,VWS V14.00,2013-03-25 06:20:00,
2013-03-25 01:25:00,34.9,24.7,29.76,WNW,292,8.6,8.6,66,0.00,,---,0.00,VWS V14.00,2013-03-25 06:25:00,
2013-03-25 01:31:00,34.9,24.0,29.76,NNW,338,10.8,10.8,64,0.00,,---,0.00,VWS V14.00,2013-03-25 06:31:00,
2013-03-25 01:36:00,34.9,23.6,29.76,West,270,8.3,8.3,63,0.00,,---,0.00,VWS V14.00,2013-03-25 06:36:00,
2013-03-25 01:42:00,34.9,22.4,29.76,NW,315,10.0,10.3,60,0.00,,---,0.00,VWS V14.00,2013-03-25 06:42:00,
2013-03-25 01:47:00,34.9,21.2,29.76,NW,315,10.5,12.1,57,0.00,,---,0.00,VWS V14.00,2013-03-25 06:47:00,
2013-03-25 01:52:00,34.9,20.8,29.76,WNW,292,13.6,13.6,56,0.00,,---,0.00,VWS V14.00,2013-03-25 06:52:00,
2013-03-25 01:58:00,35.1,21.0,29.76,WNW,292,14.7,14.7,56,0.00,,---,0.00,VWS V14.00,2013-03-25 06:58:00,
2013-03-25 02:03:00,35.1,20.5,29.76,North,0,13.9,13.9,55,0.00,,---,0.00,VWS V14.00,2013-03-25 07:03:00,
2013-03-25 02:08:00,35.1,20.1,29.76,West,270,6.0,8.1,54,0.00,,---,0.00,VWS V14.00,2013-03-25 07:08:00,
2013-03-25 02:15:00,35.1,20.1,29.76,West,270,4.6,10.1,54,0.00,,---,0.00,VWS V14.00,2013-03-25 07:15:00,
2013-03-25 02:20:00,35.1,19.7,29.76,WNW,292,10.5,10.5,53,0.00,,---,0.00,VWS V14.00,2013-03-25 07:20:00,
2013-03-25 02:25:00,35.1,19.2,29.76,NNE,22,7.7,8.1,52,0.00,,---,0.00,VWS V14.00,2013-03-25 07:25:00,
2013-03-25 02:30:00,35.1,19.2,29.76,NW,315,23.1,23.1,52,0.00,,---,0.00,VWS V14.00,2013-03-25 07:30:00,
2013-03-25 02:35:00,35.1,18.8,29.76,WNW,292,11.9,11.9,51,0.00,,---,0.00,VWS V14.00,2013-03-25 07:35:00,
2013-03-25 02:40:00,35.1,18.8,29.76,NNW,338,11.6,12.8,51,0.00,,---,0.00,VWS V14.00,2013-03-25 07:40:00,
2013-03-25 02:47:00,35.1,18.8,29.76,West,270,8.6,8.7,51,0.00,,---,0.00,VWS V14.00,2013-03-25 07:47:00,
2013-03-25 02:52:00,34.9,18.6,29.76,NW,315,6.0,7.8,51,0.00,,---,0.00,VWS V14.00,2013-03-25 07:52:00,
2013-03-25 02:58:00,34.9,19.1,29.76,NW,315,11.6,12.8,52,0.00,,---,0.00,VWS V14.00,2013-03-25 07:58:00,
2013-03-25 03:03:00,34.9,19.1,29.76,WNW,292,9.4,9.4,52,0.00,,---,0.00,VWS V14.00,2013-03-25 08:03:00,
2013-03-25 03:08:00,34.7,18.9,29.76,West,270,10.2,10.2,52,0.00,,---,0.00,VWS V14.00,2013-03-25 08:08:00,
2013-03-25 03:14:00,34.7,18.9,29.76,North,0,8.6,8.6,52,0.00,,---,0.00,VWS V14.00,2013-03-25 08:14:00,
2013-03-25 03:19:00,34.7,18.9,29.76,NNE,22,8.8,8.8,52,0.00,,---,0.00,VWS V14.00,2013-03-25 08:19:00,
2013-03-25 03:24:00,34.5,18.7,29.76,ENE,68,5.2,7.2,52,0.00,,---,0.00,VWS V14.00,2013-03-25 08:24:00,
2013-03-25 03:29:00,34.5,18.7,29.76,WNW,292,10.5,10.5,52,0.00,,---,0.00,VWS V14.00,2013-03-25 08:29:00,
2013-03-25 03:35:00,34.5,19.2,29.76,NW,315,9.1,9.1,53,0.00,,---,0.00,VWS V14.00,2013-03-25 08:35:00,
2013-03-25 03:40:00,34.5,18.7,29.76,WNW,292,14.1,14.1,52,0.00,,---,0.00,VWS V14.00,2013-03-25 08:40:00,
2013-03-25 03:45:00,34.5,18.7,29.76,WSW,248,9.1,9.1,52,0.00,,---,0.00,VWS V14.00,2013-03-25 08:45:00,
2013-03-25 03:50:00,34.3,18.5,29.76,NW,315,11.9,11.9,52,0.00,,---,0.00,VWS V14.00,2013-03-25 08:50:00,
2013-03-25 03:56:00,34.3,19.0,29.76,West,270,7.2,7.2,53,0.00,,---,0.00,VWS V14.00,2013-03-25 08:56:00,
2013-03-25 04:02:00,34.3,19.0,29.76,WNW,292,10.2,10.2,53,0.00,,---,0.00,VWS V14.00,2013-03-25 09:02:00,
2013-03-25 04:08:00,34.2,18.8,29.76,West,270,8.0,8.0,53,0.00,,---,0.00,VWS V14.00,2013-03-25 09:08:00,
2013-03-25 04:13:00,34.2,18.8,29.76,West,270,4.1,4.9,53,0.00,,---,0.00,VWS V14.00,2013-03-25 09:13:00,
2013-03-25 04:18:00,34.2,19.3,29.76,West,270,7.2,7.2,54,0.00,,---,0.00,VWS V14.00,2013-03-25 09:18:00,
2013-03-25 04:24:00,34.0,19.1,29.76,ENE,68,6.9,6.9,54,0.00,,---,0.00,VWS V14.00,2013-03-25 09:24:00,
2013-03-25 04:29:00,34.0,19.1,29.76,West,270,8.3,8.7,54,0.00,,---,0.00,VWS V14.00,2013-03-25 09:29:00,
2013-03-25 04:35:00,34.0,19.1,29.76,WNW,292,5.5,10.7,54,0.00,,---,0.00,VWS V14.00,2013-03-25 09:35:00,
2013-03-25 04:41:00,34.0,19.1,29.76,WNW,292,8.8,10.5,54,0.00,,---,0.00,VWS V14.00,2013-03-25 09:41:00,
2013-03-25 04:47:00,34.0,19.1,29.76,West,270,8.3,8.3,54,0.00,,---,0.00,VWS V14.00,2013-03-25 09:47:00,
2013-03-25 04:52:00,34.0,19.1,29.76,WNW,292,10.5,10.5,54,0.00,,---,0.00,VWS V14.00,2013-03-25 09:52:00,
2013-03-25 04:58:00,33.8,18.5,29.76,NW,315,8.3,8.3,53,0.00,,---,0.00,VWS V14.00,2013-03-25 09:58:00,
2013-03-25 05:03:00,33.8,18.5,29.76,WSW,248,13.6,13.6,53,0.00,,---,0.00,VWS V14.00,2013-03-25 10:03:00,
2013-03-25 05:08:00,33.6,18.8,29.76,NNW,338,6.0,6.0,54,0.00,,---,0.00,VWS V14.00,2013-03-25 10:08:00,
2013-03-25 05:13:00,33.6,18.8,29.76,WNW,292,8.3,12.1,54,0.00,,---,0.00,VWS V14.00,2013-03-25 10:13:00,
2013-03-25 05:18:00,33.6,18.3,29.76,NW,315,11.1,11.1,53,0.00,,---,0.00,VWS V14.00,2013-03-25 10:18:00,
2013-03-25 05:23:00,33.4,18.2,29.76,WNW,292,9.1,9.1,53,0.00,,---,0.00,VWS V14.00,2013-03-25 10:23:00,
2013-03-25 05:28:00,33.3,18.4,29.76,NW,315,5.5,5.5,54,0.00,,---,0.00,VWS V14.00,2013-03-25 10:28:00,
2013-03-25 05:34:00,33.1,18.3,29.76,NW,315,10.5,10.5,54,0.00,,---,0.00,VWS V14.00,2013-03-25 10:34:00,
2013-03-25 05:39:00,33.1,18.3,29.76,WNW,292,8.0,9.4,54,0.00,,---,0.00,VWS V14.00,2013-03-25 10:39:00,
2013-03-25 05:44:00,33.1,17.8,29.76,West,270,11.9,11.9,53,0.00,,---,0.00,VWS V14.00,2013-03-25 10:44:00,
2013-03-25 05:49:00,33.1,17.8,29.76,West,270,11.9,11.9,53,0.00,,---,0.00,VWS V14.00,2013-03-25 10:49:00,
2013-03-25 05:55:00,33.3,18.0,29.76,WSW,248,7.7,11.9,53,0.00,,---,0.00,VWS V14.00,2013-03-25 10:55:00,
2013-03-25 06:00:00,33.3,18.0,29.76,West,270,16.1,16.1,53,0.00,,---,0.00,VWS V14.00,2013-03-25 11:00:00,
2013-03-25 06:06:00,33.3,17.5,29.76,West,270,6.3,6.3,52,0.00,,---,0.00,VWS V14.00,2013-03-25 11:06:00,
2013-03-25 06:11:00,33.3,17.5,29.76,NW,315,14.1,14.1,52,0.00,,---,0.00,VWS V14.00,2013-03-25 11:11:00,
2013-03-25 06:16:00,33.3,17.5,29.76,WNW,292,13.0,13.0,52,0.00,,---,0.00,VWS V14.00,2013-03-25 11:16:00,
2013-03-25 06:21:00,33.1,17.4,29.79,NW,315,8.0,8.0,52,0.00,,---,0.00,VWS V14.00,2013-03-25 11:21:00,
2013-03-25 06:26:00,32.9,17.7,29.79,SSW,202,4.6,8.1,53,0.00,,---,0.00,VWS V14.00,2013-03-25 11:26:00,
2013-03-25 06:31:00,32.7,17.5,29.79,WSW,248,10.5,10.5,53,0.00,,---,0.00,VWS V14.00,2013-03-25 11:31:00,
2013-03-25 06:37:00,32.5,17.3,29.79,WNW,292,11.1,11.1,53,0.00,,---,0.00,VWS V14.00,2013-03-25 11:37:00,
2013-03-25 06:43:00,32.5,17.3,29.79,West,270,11.6,11.6,53,0.00,,---,0.00,VWS V14.00,2013-03-25 11:43:00,
2013-03-25 06:48:00,32.5,17.3,29.79,WNW,292,5.8,12.3,53,0.00,,---,0.00,VWS V14.00,2013-03-25 11:48:00,
2013-03-25 06:54:00,32.5,17.3,29.79,WSW,248,10.0,10.0,53,0.00,,---,0.00,VWS V14.00,2013-03-25 11:54:00,
2013-03-25 07:00:00,32.2,17.0,29.79,NW,315,8.8,8.8,53,0.00,,---,0.00,VWS V14.00,2013-03-25 12:00:00,
2013-03-25 07:07:00,32.0,17.2,29.79,WSW,248,8.8,8.8,54,0.00,,---,0.00,VWS V14.00,2013-03-25 12:07:00,
2013-03-25 07:13:00,32.0,17.2,29.79,WNW,292,6.3,8.1,54,0.00,,---,0.00,VWS V14.00,2013-03-25 12:13:00,
2013-03-25 07:18:00,32.0,17.2,29.79,WSW,248,7.2,9.6,54,0.00,,---,0.00,VWS V14.00,2013-03-25 12:18:00,
2013-03-25 07:23:00,32.0,17.7,29.79,WNW,292,10.8,10.8,55,0.00,,---,0.00,VWS V14.00,2013-03-25 12:23:00,
2013-03-25 07:29:00,32.0,17.7,29.79,NW,315,6.9,8.5,55,0.00,,---,0.00,VWS V14.00,2013-03-25 12:29:00,
2013-03-25 07:34:00,32.0,18.1,29.79,East,90,13.6,13.6,56,0.00,,---,0.00,VWS V14.00,2013-03-25 12:34:00,
2013-03-25 07:40:00,32.0,17.2,29.79,SW,225,12.7,12.7,54,0.00,,---,0.00,VWS V14.00,2013-03-25 12:40:00,
2013-03-25 07:46:00,32.0,17.2,29.79,WNW,292,11.9,11.9,54,0.00,,---,0.00,VWS V14.00,2013-03-25 12:46:00,
2013-03-25 07:51:00,32.0,17.2,29.79,NW,315,9.1,9.1,54,0.00,,---,0.00,VWS V14.00,2013-03-25 12:51:00,
2013-03-25 07:56:00,32.2,17.4,29.79,WNW,292,10.5,10.5,54,0.00,,---,0.00,VWS V14.00,2013-03-25 12:56:00,
2013-03-25 08:01:00,32.2,17.4,29.82,WNW,292,15.0,15.0,54,0.00,,---,0.00,VWS V14.00,2013-03-25 13:01:00,
2013-03-25 08:06:00,32.2,17.4,29.82,West,270,13.0,13.0,54,0.00,,---,0.00,VWS V14.00,2013-03-25 13:06:00,
2013-03-25 08:12:00,32.2,16.5,29.82,WNW,292,10.8,10.8,52,0.00,,---,0.00,VWS V14.00,2013-03-25 13:12:00,
2013-03-25 08:17:00,32.4,17.1,29.82,WNW,292,5.8,10.1,53,0.00,,---,0.00,VWS V14.00,2013-03-25 13:17:00,
2013-03-25 08:22:00,32.5,17.3,29.82,WSW,248,11.9,11.9,53,0.00,,---,0.00,VWS V14.00,2013-03-25 13:22:00,
2013-03-25 08:27:00,32.5,17.3,29.82,West,270,11.1,11.1,53,0.00,,---,0.00,VWS V14.00,2013-03-25 13:27:00,
2013-03-25 08:32:00,32.5,16.9,29.82,WNW,292,11.1,11.1,52,0.00,,---,0.00,VWS V14.00,2013-03-25 13:32:00,
2013-03-25 08:38:00,32.7,17.5,29.82,WNW,292,11.9,11.9,53,0.00,,---,0.00,VWS V14.00,2013-03-25 13:38:00,
2013-03-25 08:43:00,32.9,17.7,29.82,NW,315,5.8,7.6,53,0.00,,---,0.00,VWS V14.00,2013-03-25 13:43:00,
2013-03-25 08:49:00,33.1,17.4,29.82,NNW,338,10.5,11.0,52,0.00,,---,0.00,VWS V14.00,2013-03-25 13:49:00,
2013-03-25 08:54:00,33.1,17.4,29.82,West,270,7.7,7.7,52,0.00,,---,0.00,VWS V14.00,2013-03-25 13:54:00,
2013-03-25 09:00:00,33.3,17.5,29.82,West,270,13.6,13.6,52,0.00,,---,0.00,VWS V14.00,2013-03-25 14:00:00,
2013-03-25 09:05:00,33.4,17.7,29.82,NNW,338,9.1,12.5,52,0.00,,---,0.00,VWS V14.00,2013-03-25 14:05:00,
2013-03-25 09:11:00,33.8,18.5,29.82,West,270,16.7,16.7,53,0.00,,---,0.00,VWS V14.00,2013-03-25 14:11:00,
2013-03-25 09:16:00,34.0,18.2,29.82,WNW,292,9.7,9.7,52,0.00,,---,0.00,VWS V14.00,2013-03-25 14:16:00,
2013-03-25 09:22:00,34.0,17.8,29.85,WNW,292,20.3,20.3,51,0.00,,---,0.00,VWS V14.00,2013-03-25 14:22:00,
2013-03-25 09:27:00,33.8,17.6,29.85,NW,315,13.9,13.9,51,0.00,,---,0.00,VWS V14.00,2013-03-25 14:27:00,
2013-03-25 09:32:00,34.3,18.5,29.85,WNW,292,9.7,9.7,52,0.00,,---,0.00,VWS V14.00,2013-03-25 14:32:00,
2013-03-25 09:37:00,34.5,18.3,29.85,NNW,338,6.3,7.4,51,0.00,,---,0.00,VWS V14.00,2013-03-25 14:37:00,
2013-03-25 09:43:00,34.7,18.0,29.85,WNW,292,6.3,9.8,50,0.00,,---,0.00,VWS V14.00,2013-03-25 14:43:00,
2013-03-25 09:48:00,34.9,18.1,29.85,NNE,22,8.8,15.4,50,0.00,,---,0.00,VWS V14.00,2013-03-25 14:48:00,
2013-03-25 09:53:00,35.2,19.4,29.85,NNE,22,8.0,10.5,52,0.00,,---,0.00,VWS V14.00,2013-03-25 14:53:00,
2013-03-25 09:59:00,35.4,19.1,29.85,WNW,292,15.8,15.8,51,0.00,,---,0.00,VWS V14.00,2013-03-25 14:59:00,
2013-03-25 10:04:00,35.4,18.6,29.85,WSW,248,10.8,10.8,50,0.00,,---,0.00,VWS V14.00,2013-03-25 15:04:00,
2013-03-25 10:09:00,35.6,18.8,29.85,WNW,292,8.6,8.7,50,0.00,,---,0.00,VWS V14.00,2013-03-25 15:09:00,
2013-03-25 10:15:00,36.0,19.6,29.85,WNW,292,10.2,10.7,51,0.00,,---,0.00,VWS V14.00,2013-03-25 15:15:00,
2013-03-25 10:21:00,36.3,19.9,29.85,NNE,22,6.0,6.0,51,0.00,,---,0.00,VWS V14.00,2013-03-25 15:21:00,
2013-03-25 10:26:00,36.7,19.8,29.85,NW,315,10.2,10.2,50,0.00,,---,0.00,VWS V14.00,2013-03-25 15:26:00,
2013-03-25 10:32:00,36.9,20.0,29.85,NW,315,8.6,8.6,50,0.00,,---,0.00,VWS V14.00,2013-03-25 15:32:00,
2013-03-25 10:37:00,37.0,19.7,29.85,WNW,292,16.7,16.7,49,0.00,,---,0.00,VWS V14.00,2013-03-25 15:37:00,
2013-03-25 10:42:00,37.4,20.0,29.85,West,270,6.6,8.7,49,0.00,,---,0.00,VWS V14.00,2013-03-25 15:42:00,
2013-03-25 10:47:00,37.8,20.3,29.85,West,270,10.5,12.8,49,0.00,,---,0.00,VWS V14.00,2013-03-25 15:47:00,
2013-03-25 10:52:00,37.9,20.0,29.85,WNW,292,8.0,10.5,48,0.00,,---,0.00,VWS V14.00,2013-03-25 15:52:00,
2013-03-25 10:57:00,38.7,20.7,29.85,West,270,8.0,10.5,48,0.00,,---,0.00,VWS V14.00,2013-03-25 15:57:00,
2013-03-25 11:03:00,38.8,19.8,29.88,North,0,10.5,10.5,46,0.00,,---,0.00,VWS V14.00,2013-03-25 16:03:00,
2013-03-25 11:08:00,39.0,20.5,29.88,WNW,292,13.6,13.6,47,0.00,,---,0.00,VWS V14.00,2013-03-25 16:08:00,
2013-03-25 11:13:00,39.2,20.2,29.88,NNW,338,14.7,14.7,46,0.00,,---,0.00,VWS V14.00,2013-03-25 16:13:00,
2013-03-25 11:18:00,38.5,18.5,29.88,WNW,292,11.6,12.8,44,0.00,,---,0.00,VWS V14.00,2013-03-25 16:18:00,
2013-03-25 11:24:00,38.8,19.8,29.88,WSW,248,10.2,10.2,46,0.00,,---,0.00,VWS V14.00,2013-03-25 16:24:00,
2013-03-25 11:30:00,39.2,19.7,29.88,NNW,338,6.3,10.3,45,0.00,,---,0.00,VWS V14.00,2013-03-25 16:30:00,
2013-03-25 11:35:00,39.4,19.8,29.88,NNW,338,10.5,10.5,45,0.00,,---,0.00,VWS V14.00,2013-03-25 16:35:00,
2013-03-25 11:40:00,39.0,19.0,29.88,WNW,292,9.1,11.0,44,0.00,,---,0.00,VWS V14.00,2013-03-25 16:40:00,
2013-03-25 11:45:00,38.8,18.8,29.88,NW,315,12.2,12.2,44,0.00,,---,0.00,VWS V14.00,2013-03-25 16:45:00,
2013-03-25 11:50:00,39.0,19.0,29.88,WNW,292,13.9,13.9,44,0.00,,---,0.00,VWS V14.00,2013-03-25 16:50:00,
2013-03-25 11:55:00,39.0,19.5,29.88,NNW,338,17.2,17.2,45,0.00,,---,0.00,VWS V14.00,2013-03-25 16:55:00,
2013-03-25 12:00:00,39.2,19.1,29.88,NW,315,10.8,10.8,44,0.00,,---,0.00,VWS V14.00,2013-03-25 17:00:00,
2013-03-25 12:06:00,39.7,19.6,29.88,NNW,338,14.7,14.7,44,0.00,,---,0.00,VWS V14.00,2013-03-25 17:06:00,
2013-03-25 12:11:00,39.7,18.5,29.88,North,0,11.9,12.3,42,0.00,,---,0.00,VWS V14.00,2013-03-25 17:11:00,
2013-03-25 12:16:00,39.9,19.2,29.88,NNE,22,10.5,10.5,43,0.00,,---,0.00,VWS V14.00,2013-03-25 17:16:00,
2013-03-25 12:21:00,40.3,19.0,29.88,NW,315,9.4,9.4,42,0.00,,---,0.00,VWS V14.00,2013-03-25 17:21:00,
2013-03-25 12:27:00,40.5,19.2,29.88,NW,315,8.6,10.1,42,0.00,,---,0.00,VWS V14.00,2013-03-25 17:27:00,
2013-03-25 12:32:00,39.9,18.1,29.88,West,270,14.4,14.4,41,0.00,,---,0.00,VWS V14.00,2013-03-25 17:32:00,
2013-03-25 12:38:00,40.1,18.9,29.88,North,0,16.7,16.7,42,0.00,,---,0.00,VWS V14.00,2013-03-25 17:38:00,
2013-03-25 12:43:00,40.1,18.9,29.88,WSW,248,13.6,20.6,42,0.00,,---,0.00,VWS V14.00,2013-03-25 17:43:00,
2013-03-25 12:48:00,40.3,19.0,29.88,NNW,338,10.5,10.5,42,0.00,,---,0.00,VWS V14.00,2013-03-25 17:48:00,
2013-03-25 12:54:00,40.6,19.4,29.88,North,0,11.1,11.1,42,0.00,,---,0.00,VWS V14.00,2013-03-25 17:54:00,
2013-03-25 13:00:00,40.6,18.8,29.88,WSW,248,10.8,10.8,41,0.00,,---,0.00,VWS V14.00,2013-03-25 18:00:00,
2013-03-25 13:05:00,40.8,20.1,29.88,NW,315,10.5,11.0,43,0.00,,---,0.00,VWS V14.00,2013-03-25 18:05:00,
2013-03-25 13:10:00,41.2,19.9,29.88,WNW,292,12.5,12.5,42,0.00,,---,0.00,VWS V14.00,2013-03-25 18:10:00,
2013-03-25 13:17:00,40.8,19.5,29.88,NW,315,11.9,11.9,42,0.00,,---,0.00,VWS V14.00,2013-03-25 18:17:00,
2013-03-25 13:22:00,40.6,18.8,29.88,NNW,338,10.2,10.2,41,0.00,,---,0.00,VWS V14.00,2013-03-25 18:22:00,
2013-03-25 13:28:00,41.5,19.6,29.88,West,270,17.2,17.2,41,0.00,,---,0.00,VWS V14.00,2013-03-25 18:28:00,
2013-03-25 13:33:00,41.7,19.8,29.88,North,0,14.7,14.7,41,0.00,,---,0.00,VWS V14.00,2013-03-25 18:33:00,
2013-03-25 13:38:00,41.0,18.5,29.88,WNW,292,14.7,14.7,40,0.00,,---,0.00,VWS V14.00,2013-03-25 18:38:00,
2013-03-25 13:45:00,40.8,19.0,29.88,NNW,338,6.3,6.3,41,0.00,,---,0.00,VWS V14.00,2013-03-25 18:45:00,
2013-03-25 13:50:00,41.2,18.7,29.91,WNW,292,17.2,17.2,40,0.00,,---,0.00,VWS V14.00,2013-03-25 18:50:00,
2013-03-25 13:55:00,41.2,19.3,29.91,WNW,292,7.7,8.1,41,0.00,,---,0.00,VWS V14.00,2013-03-25 18:55:00,
2013-03-25 14:00:00,41.7,19.8,29.91,WNW,292,11.9,11.9,41,0.00,,---,0.00,VWS V14.00,2013-03-25 19:00:00,
2013-03-25 14:05:00,41.4,18.9,29.91,WNW,292,13.9,13.9,40,0.00,,---,0.00,VWS V14.00,2013-03-25 19:05:00,
2013-03-25 14:10:00,41.4,18.9,29.91,North,0,9.1,9.1,40,0.00,,---,0.00,VWS V14.00,2013-03-25 19:10:00,
2013-03-25 14:16:00,41.5,19.0,29.91,WNW,292,12.5,12.5,40,0.00,,---,0.00,VWS V14.00,2013-03-25 19:16:00,
2013-03-25 14:21:00,41.7,19.2,29.91,WSW,248,13.9,13.9,40,0.00,,---,0.00,VWS V14.00,2013-03-25 19:21:00,
2013-03-25 14:26:00,41.4,18.3,29.91,WSW,248,7.7,13.2,39,0.00,,---,0.00,VWS V14.00,2013-03-25 19:26:00,
2013-03-25 14:31:00,41.4,18.9,29.91,NW,315,13.3,13.3,40,0.00,,---,0.00,VWS V14.00,2013-03-25 19:31:00,
2013-03-25 14:36:00,41.5,19.0,29.91,NW,315,13.6,13.6,40,0.00,,---,0.00,VWS V14.00,2013-03-25 19:36:00,
2013-03-25 14:42:00,41.7,19.2,29.91,East,90,10.8,10.8,40,0.00,,---,0.00,VWS V14.00,2013-03-25 19:42:00,
2013-03-25 14:47:00,41.5,19.0,29.91,WNW,292,13.9,13.9,40,0.00,,---,0.00,VWS V14.00,2013-03-25 19:47:00,
2013-03-25 14:52:00,41.4,18.9,29.91,NNW,338,14.1,14.1,40,0.00,,---,0.00,VWS V14.00,2013-03-25 19:52:00,
2013-03-25 14:58:00,40.6,18.2,29.91,West,270,13.9,13.9,40,0.00,,---,0.00,VWS V14.00,2013-03-25 19:58:00,
2013-03-25 15:03:00,40.5,18.1,29.91,WSW,248,9.1,9.1,40,0.00,,---,0.00,VWS V14.00,2013-03-25 20:03:00,
2013-03-25 15:08:00,40.6,18.8,29.91,WSW,248,13.0,13.0,41,0.00,,---,0.00,VWS V14.00,2013-03-25 20:08:00,
2013-03-25 15:15:00,40.8,19.0,29.91,WSW,248,6.3,12.1,41,0.00,,---,0.00,VWS V14.00,2013-03-25 20:15:00,
2013-03-25 15:20:00,40.8,18.4,29.91,WNW,292,16.1,16.1,40,0.00,,---,0.00,VWS V14.00,2013-03-25 20:20:00,
2013-03-25 15:25:00,41.0,19.1,29.91,NW,315,14.1,14.1,41,0.00,,---,0.00,VWS V14.00,2013-03-25 20:25:00,
2013-03-25 15:31:00,41.2,19.3,29.91,WNW,292,11.6,11.6,41,0.00,,---,0.00,VWS V14.00,2013-03-25 20:31:00,
2013-03-25 15:37:00,40.8,19.0,29.91,WNW,292,14.7,14.7,41,0.00,,---,0.00,VWS V14.00,2013-03-25 20:37:00,
2013-03-25 15:42:00,41.0,19.1,29.91,WNW,292,14.1,17.9,41,0.00,,---,0.00,VWS V14.00,2013-03-25 20:42:00,
2013-03-25 15:47:00,40.8,19.5,29.94,NW,315,14.1,14.1,42,0.00,,---,0.00,VWS V14.00,2013-03-25 20:47:00,
2013-03-25 15:52:00,41.0,19.1,29.94,WSW,248,13.6,13.6,41,0.00,,---,0.00,VWS V14.00,2013-03-25 20:52:00,
2013-03-25 15:57:00,40.1,18.3,29.94,WNW,292,10.2,12.5,41,0.00,,---,0.00,VWS V14.00,2013-03-25 20:57:00,
2013-03-25 16:03:00,39.7,18.5,29.91,WNW,292,11.9,11.9,42,0.00,,---,0.00,VWS V14.00,2013-03-25 21:03:00,
2013-03-25 16:08:00,39.7,18.5,29.91,NW,315,10.5,11.4,42,0.00,,---,0.00,VWS V14.00,2013-03-25 21:08:00,
2013-03-25 16:14:00,39.4,17.7,29.91,NW,315,7.2,15.4,41,0.00,,---,0.00,VWS V14.00,2013-03-25 21:14:00,
2013-03-25 16:20:00,39.6,18.9,29.91,NW,315,8.6,12.8,43,0.00,,---,0.00,VWS V14.00,2013-03-25 21:20:00,
2013-03-25 16:25:00,39.4,18.2,29.91,NW,315,17.5,17.5,42,0.00,,---,0.00,VWS V14.00,2013-03-25 21:25:00,
2013-03-25 16:31:00,39.4,18.8,29.94,ENE,68,7.7,7.7,43,0.00,,---,0.00,VWS V14.00,2013-03-25 21:31:00,
2013-03-25 16:36:00,39.2,18.0,29.94,WNW,292,18.9,18.9,42,0.00,,---,0.00,VWS V14.00,2013-03-25 21:36:00,
2013-03-25 16:41:00,39.2,18.6,29.94,WNW,292,10.2,10.2,43,0.00,,---,0.00,VWS V14.00,2013-03-25 21:41:00,
2013-03-25 16:46:00,39.4,19.3,29.91,North,0,5.5,7.8,44,0.00,,---,0.00,VWS V14.00,2013-03-25 21:46:00,
2013-03-25 16:52:00,39.2,18.6,29.91,NW,315,10.2,10.2,43,0.00,,---,0.00,VWS V14.00,2013-03-25 21:52:00,
2013-03-25 16:57:00,39.4,19.3,29.91,WSW,248,8.8,8.8,44,0.00,,---,0.00,VWS V14.00,2013-03-25 21:57:00,
2013-03-25 17:03:00,39.4,19.8,29.94,WSW,248,10.5,10.5,45,0.00,,---,0.00,VWS V14.00,2013-03-25 22:03:00,
2013-03-25 17:08:00,39.2,19.1,29.94,NNE,22,6.9,11.0,44,0.00,,---,0.00,VWS V14.00,2013-03-25 22:08:00,
2013-03-25 17:13:00,38.8,19.3,29.94,WSW,248,14.1,14.1,45,0.00,,---,0.00,VWS V14.00,2013-03-25 22:13:00,
2013-03-25 17:18:00,38.7,18.6,29.94,NNE,22,13.9,13.9,44,0.00,,---,0.00,VWS V14.00,2013-03-25 22:18:00,
2013-03-25 17:24:00,38.7,19.7,29.94,SW,225,11.6,11.6,46,0.00,,---,0.00,VWS V14.00,2013-03-25 22:24:00,
2013-03-25 17:29:00,38.5,19.5,29.94,WNW,292,17.2,17.2,46,0.00,,---,0.00,VWS V14.00,2013-03-25 22:29:00,
2013-03-25 17:34:00,38.5,19.5,29.94,WSW,248,11.1,11.2,46,0.00,,---,0.00,VWS V14.00,2013-03-25 22:34:00,
2013-03-25 17:39:00,38.3,19.4,29.94,NW,315,8.3,12.5,46,0.00,,---,0.00,VWS V14.00,2013-03-25 22:39:00,
2013-03-25 17:44:00,38.1,19.7,29.94,West,270,14.7,14.7,47,0.00,,---,0.00,VWS V14.00,2013-03-25 22:44:00,
2013-03-25 17:49:00,37.9,19.5,29.94,WNW,292,8.3,10.3,47,0.00,,---,0.00,VWS V14.00,2013-03-25 22:49:00,
2013-03-25 17:55:00,37.9,19.5,29.94,WNW,292,13.9,13.9,47,0.00,,---,0.00,VWS V14.00,2013-03-25 22:55:00,
2013-03-25 18:00:00,37.8,20.3,29.94,WNW,292,10.5,10.5,49,0.00,,---,0.00,VWS V14.00,2013-03-25 23:00:00,
2013-03-25 18:05:00,37.8,20.3,29.94,NW,315,5.5,5.8,49,0.00,,---,0.00,VWS V14.00,2013-03-25 23:05:00,
2013-03-25 18:10:00,37.6,20.2,29.94,WNW,292,12.2,12.2,49,0.00,,---,0.00,VWS V14.00,2013-03-25 23:10:00,
2013-03-25 18:15:00,37.4,20.0,29.94,NNE,22,8.0,8.0,49,0.00,,---,0.00,VWS V14.00,2013-03-25 23:15:00,
2013-03-25 18:20:00,37.4,20.0,29.94,WNW,292,5.2,6.7,49,0.00,,---,0.00,VWS V14.00,2013-03-25 23:20:00,
2013-03-25 18:25:00,37.4,19.5,29.94,WNW,292,9.1,9.1,48,0.00,,---,0.00,VWS V14.00,2013-03-25 23:25:00,
2013-03-25 18:31:00,37.4,20.0,29.94,West,270,10.5,10.5,49,0.00,,---,0.00,VWS V14.00,2013-03-25 23:31:00,
2013-03-25 18:36:00,37.2,19.8,29.94,NW,315,10.5,11.0,49,0.00,,---,0.00,VWS V14.00,2013-03-25 23:36:00,
2013-03-25 18:42:00,37.0,19.7,29.94,West,270,5.8,7.8,49,0.00,,---,0.00,VWS V14.00,2013-03-25 23:42:00,
2013-03-25 18:48:00,37.0,19.7,29.97,NNW,338,12.2,12.2,49,0.00,,---,0.00,VWS V14.00,2013-03-25 23:48:00,
2013-03-25 18:53:00,37.0,19.7,29.97,West,270,8.0,8.0,49,0.00,,---,0.00,VWS V14.00,2013-03-25 23:53:00,
2013-03-25 18:58:00,37.0,19.7,29.97,NNE,22,8.0,8.0,49,0.00,,---,0.00,VWS V14.00,2013-03-25 23:58:00,
2013-03-25 19:04:00,36.9,19.5,29.97,WSW,248,8.6,8.6,49,0.00,,---,0.00,VWS V14.00,2013-03-26 00:04:00,
2013-03-25 19:09:00,36.9,20.0,29.97,WNW,292,7.2,7.2,50,0.00,,---,0.00,VWS V14.00,2013-03-26 00:09:00,
2013-03-25 19:14:00,36.7,19.3,29.97,NE,45,10.5,10.5,49,0.00,,---,0.00,VWS V14.00,2013-03-26 00:14:00,
2013-03-25 19:19:00,36.7,19.8,29.97,WNW,292,5.8,5.8,50,0.00,,---,0.00,VWS V14.00,2013-03-26 00:19:00,
2013-03-25 19:25:00,36.7,19.8,29.97,North,0,4.9,6.9,50,0.00,,---,0.00,VWS V14.00,2013-03-26 00:25:00,
2013-03-25 19:31:00,36.7,19.8,29.97,West,270,8.3,8.3,50,0.00,,---,0.00,VWS V14.00,2013-03-26 00:31:00,
2013-03-25 19:36:00,36.7,19.8,29.97,NW,315,6.3,7.2,50,0.00,,---,0.00,VWS V14.00,2013-03-26 00:36:00,
2013-03-25 19:43:00,36.7,19.8,29.97,NW,315,6.0,6.0,50,0.00,,---,0.00,VWS V14.00,2013-03-26 00:43:00,
2013-03-25 19:48:00,36.3,19.5,29.97,NNW,338,5.8,5.8,50,0.00,,---,0.00,VWS V14.00,2013-03-26 00:48:00,
2013-03-25 19:53:00,36.3,19.5,29.97,WNW,292,5.2,10.7,50,0.00,,---,0.00,VWS V14.00,2013-03-26 00:53:00,
2013-03-25 19:59:00,36.3,19.5,29.97,NW,315,4.9,4.9,50,0.00,,---,0.00,VWS V14.00,2013-03-26 00:59:00,
2013-03-25 20:04:00,36.3,19.5,29.97,WNW,292,5.8,5.8,50,0.00,,---,0.00,VWS V14.00,2013-03-26 01:04:00,
2013-03-25 20:09:00,36.3,19.9,29.97,NW,315,4.1,4.9,51,0.00,,---,0.00,VWS V14.00,2013-03-26 01:09:00,
2013-03-25 20:15:00,36.1,19.8,29.97,WNW,292,4.4,4.4,51,0.00,,---,0.00,VWS V14.00,2013-03-26 01:15:00,
2013-03-25 20:20:00,36.1,19.8,30.00,NW,315,4.4,4.4,51,0.00,,---,0.00,VWS V14.00,2013-03-26 01:20:00,
2013-03-25 20:25:00,36.1,20.2,30.00,WNW,292,4.4,5.8,52,0.00,,---,0.00,VWS V14.00,2013-03-26 01:25:00,
2013-03-25 20:31:00,36.3,20.4,29.97,WNW,292,4.9,4.9,52,0.00,,---,0.00,VWS V14.00,2013-03-26 01:31:00,
2013-03-25 20:38:00,36.1,20.2,29.97,NNW,338,8.8,8.8,52,0.00,,---,0.00,VWS V14.00,2013-03-26 01:38:00,
2013-03-25 20:43:00,36.0,20.1,29.97,NW,315,9.1,9.1,52,0.00,,---,0.00,VWS V14.00,2013-03-26 01:43:00,
2013-03-25 20:48:00,35.8,20.3,30.00,NW,315,5.5,5.5,53,0.00,,---,0.00,VWS V14.00,2013-03-26 01:48:00,
2013-03-25 20:53:00,35.8,20.3,30.00,NW,315,4.9,4.9,53,0.00,,---,0.00,VWS V14.00,2013-03-26 01:53:00,
2013-03-25 20:58:00,35.4,20.4,30.00,NW,315,5.5,5.5,54,0.00,,---,0.00,VWS V14.00,2013-03-26 01:58:00,
2013-03-25 21:04:00,35.4,20.4,30.00,WNW,292,5.2,6.3,54,0.00,,---,0.00,VWS V14.00,2013-03-26 02:04:00,
2013-03-25 21:10:00,35.4,20.4,30.00,WNW,292,12.5,12.5,54,0.00,,---,0.00,VWS V14.00,2013-03-26 02:10:00,
2013-03-25 21:16:00,35.4,20.9,30.00,West,270,6.3,6.3,55,0.00,,---,0.00,VWS V14.00,2013-03-26 02:16:00,
2013-03-25 21:21:00,35.4,20.9,30.00,West,270,10.5,10.5,55,0.00,,---,0.00,VWS V14.00,2013-03-26 02:21:00,
2013-03-25 21:26:00,35.4,21.3,30.00,WNW,292,3.0,3.4,56,0.00,,---,0.00,VWS V14.00,2013-03-26 02:26:00,
2013-03-25 21:31:00,35.4,22.1,30.00,NW,315,5.5,5.5,58,0.00,,---,0.00,VWS V14.00,2013-03-26 02:31:00,
2013-03-25 21:36:00,35.2,21.1,30.00,WNW,292,8.6,8.6,56,0.00,,---,0.00,VWS V14.00,2013-03-26 02:36:00,
2013-03-25 21:43:00,35.2,21.5,30.00,North,0,6.3,6.3,57,0.00,,---,0.00,VWS V14.00,2013-03-26 02:43:00,
2013-03-25 21:49:00,35.1,21.4,30.00,NNW,338,6.9,6.9,57,0.00,,---,0.00,VWS V14.00,2013-03-26 02:49:00,
2013-03-25 21:54:00,34.9,21.2,30.00,WNW,292,4.4,4.4,57,0.00,,---,0.00,VWS V14.00,2013-03-26 02:54:00,
2013-03-25 22:00:00,34.9,20.8,30.00,WSW,248,6.6,6.6,56,0.00,,---,0.00,VWS V14.00,2013-03-26 03:00:00,
2013-03-25 22:05:00,35.1,21.8,30.00,WNW,292,5.5,5.5,58,0.00,,---,0.00,VWS V14.00,2013-03-26 03:05:00,
2013-03-25 22:12:00,35.1,21.4,30.00,NW,315,5.5,5.5,57,0.00,,---,0.00,VWS V14.00,2013-03-26 03:12:00,
2013-03-25 22:18:00,35.1,21.4,30.03,WNW,292,5.2,5.2,57,0.00,,---,0.00,VWS V14.00,2013-03-26 03:18:00,
2013-03-25 22:23:00,35.1,21.8,30.03,WSW,248,5.2,6.0,58,0.00,,---,0.00,VWS V14.00,2013-03-26 03:23:00,
2013-03-25 22:28:00,34.9,21.6,30.03,WNW,292,4.4,6.0,58,0.00,,---,0.00,VWS V14.00,2013-03-26 03:28:00,
2013-03-25 22:33:00,34.7,21.5,30.03,WNW,292,11.1,11.1,58,0.00,,---,0.00,VWS V14.00,2013-03-26 03:33:00,
2013-03-25 22:38:00,34.5,21.7,30.03,NW,315,9.1,9.1,59,0.00,,---,0.00,VWS V14.00,2013-03-26 03:38:00,
2013-03-25 22:44:00,34.5,21.7,30.03,NNW,338,7.7,7.7,59,0.00,,---,0.00,VWS V14.00,2013-03-26 03:44:00,
2013-03-25 22:49:00,34.3,21.5,30.03,SW,225,4.4,4.9,59,0.00,,---,0.00,VWS V14.00,2013-03-26 03:49:00,
2013-03-25 22:54:00,34.2,20.9,30.03,West,270,4.9,4.9,58,0.00,,---,0.00,VWS V14.00,2013-03-26 03:54:00,
2013-03-25 23:00:00,34.2,20.9,30.03,WNW,292,8.6,8.6,58,0.00,,---,0.00,VWS V14.00,2013-03-26 04:00:00,
2013-03-25 23:03:00,34.2,20.5,30.03,North,0,8.8,8.8,57,0.00,,---,0.00,VWS V14.00,2013-03-26 04:03:00,
2013-03-25 23:08:00,34.0,20.8,30.03,WNW,292,4.6,4.6,58,0.00,,---,0.00,VWS V14.00,2013-03-26 04:08:00,
2013-03-25 23:13:00,34.0,20.8,30.03,West,270,11.9,11.9,58,0.00,,---,0.00,VWS V14.00,2013-03-26 04:13:00,
2013-03-25 23:18:00,34.0,20.8,30.03,WNW,292,10.8,10.8,58,0.00,,---,0.00,VWS V14.00,2013-03-26 04:18:00,
2013-03-25 23:23:00,34.0,20.8,30.03,WNW,292,11.6,11.6,58,0.00,,---,0.00,VWS V14.00,2013-03-26 04:23:00,
2013-03-25 23:28:00,34.0,20.8,30.03,WSW,248,11.1,11.1,58,0.00,,---,0.00,VWS V14.00,2013-03-26 04:28:00,
2013-03-25 23:33:00,34.0,20.4,30.03,West,270,13.6,13.6,57,0.00,,---,0.00,VWS V14.00,2013-03-26 04:33:00,
2013-03-25 23:37:00,34.0,20.4,30.03,WNW,292,4.6,4.6,57,0.00,,---,0.00,VWS V14.00,2013-03-26 04:37:00,
2013-03-25 23:42:00,33.8,20.2,30.03,WSW,248,10.0,10.0,57,0.00,,---,0.00,VWS V14.00,2013-03-26 04:42:00,
2013-03-25 23:47:00,34.0,20.8,30.03,NW,315,5.5,6.0,58,0.00,,---,0.00,VWS V14.00,2013-03-26 04:47:00,
2013-03-25 23:52:00,34.0,20.8,30.03,NNW,338,7.2,7.2,58,0.00,,---,0.00,VWS V14.00,2013-03-26 04:52:00,
2013-03-25 23:58:00,34.0,20.8,30.03,WSW,248,6.0,6.0,58,0.00,,---,0.00,VWS V14.00,2013-03-26 04:58:00,